EW8665 Weather Reports


time (UTC)temp
C
wind
direction
speed
KPH
gust
KPH
rain 1hr
cm
rain 24hr
cm
rain mn
cm
humidity
%
barometer
mb
20260904210004 22 74 3.2 6.4 0.00 0.00 0.00 66 1018.7
20260904205504 22 69 4.8 6.4 0.00 0.00 0.00 66 1018.8
20260904204504 22 80 4.8 9.7 0.00 0.00 0.00 66 1018.8
20260904204004 22 76 3.2 8.0 0.00 0.00 0.00 66 1018.8
20260904203504 22 75 3.2 8.0 0.00 0.00 0.00 66 1018.6
20260904203004 22 77 3.2 6.4 0.00 0.00 0.00 66 1018.8
20260904202504 22 81 3.2 8.0 0.00 0.00 0.00 66 1018.6
20260904202004 22 79 4.8 8.0 0.00 0.00 0.00 63 1018.8
20260904201504 22 71 4.8 9.7 0.00 0.00 0.00 63 1018.8
20260904201004 22 73 4.8 9.7 0.00 0.00 0.00 63 1018.8
20260904200504 22 76 6.4 9.7 0.00 0.00 0.00 63 1018.6
20260904200004 22 74 6.4 9.7 0.00 0.00 0.00 63 1018.6
20260904195004 22 68 4.8 6.4 0.00 0.00 0.00 64 1018.5
20260904194006 22 72 3.2 8.0 0.00 0.00 0.00 64 1018.6
20260904193504 22 67 4.8 8.0 0.00 0.00 0.00 64 1018.7
20260904193004 22 68 4.8 8.0 0.00 0.00 0.00 64 1018.7
20260904192004 23 69 4.8 9.7 0.00 0.00 0.00 63 1018.7
20260904191504 23 66 4.8 9.7 0.00 0.00 0.00 63 1018.5
20260904191004 23 65 4.8 8.0 0.00 0.00 0.00 63 1018.4
20260904190504 23 62 4.8 8.0 0.00 0.00 0.00 63 1018.6
20260904185504 23 60 4.8 6.4 0.00 0.00 0.00 62 1018.5
20260904185004 24 62 3.2 6.4 0.00 0.00 0.00 62 1018.4
20260904184004 24 59 4.8 8.0 0.00 0.00 0.00 60 1018.2
20260904183503 24 60 4.8 8.0 0.00 0.00 0.00 60 1018.3
20260904183004 25 62 4.8 8.0 0.00 0.00 0.00 59 1018.4
20260904182504 25 56 4.8 8.0 0.00 0.00 0.00 58 1018.3
20260904182004 25 52 3.2 6.4 0.00 0.00 0.00 57 1018.0
20260904181503 25 47 3.2 6.4 0.00 0.00 0.00 56 1018.0
20260904181005 26 48 3.2 6.4 0.00 0.00 0.00 55 1017.9
20260904180505 26 38 3.2 6.4 0.00 0.00 0.00 55 1018.0
20260904180005 26 34 3.2 6.4 0.00 0.00 0.00 54 1018.1
20260904175505 26 36 3.2 6.4 0.00 0.00 0.00 54 1017.9
20260904175006 27 36 3.2 6.4 0.00 0.00 0.00 53 1017.7
20260904174505 27 42 3.2 4.8 0.00 0.00 0.00 52 1017.7
20260904174005 28 263 1.6 3.2 0.00 0.00 0.00 47 1017.9
20260904173506 28 233 1.6 3.2 0.00 0.00 0.00 47 1017.7
20260904173005 28 233 1.6 4.8 0.00 0.00 0.00 46 1017.8
20260904172507 28 228 1.6 6.4 0.00 0.00 0.00 45 1017.7
20260904172006 29 230 4.8 14.5 0.00 0.00 0.00 45 1017.8
20260904171506 29 228 6.4 14.5 0.00 0.00 0.00 44 1017.9
20260904171005 29 230 6.4 12.9 0.00 0.00 0.00 44 1017.9
20260904170505 30 216 6.4 12.9 0.00 0.00 0.00 43 1017.8
20260904170006 30 216 6.4 14.5 0.00 0.00 0.00 42 1017.9
20260904165506 30 221 6.4 14.5 0.00 0.00 0.00 42 1017.8
20260904165006 30 224 8.0 19.3 0.00 0.00 0.00 41 1017.7
20260904164506 30 239 6.4 19.3 0.00 0.00 0.00 41 1017.8
20260904164007 31 240 8.0 14.5 0.00 0.00 0.00 40 1017.8
20260904163506 31 246 8.0 14.5 0.00 0.00 0.00 40 1017.8
20260904163006 31 244 9.7 14.5 0.00 0.00 0.00 40 1017.8
20260904162505 31 249 11.3 19.3 0.00 0.00 0.00 40 1017.8
20260904162005 31 242 9.7 19.3 0.00 0.00 0.00 40 1017.9
20260904161505 31 234 8.0 19.3 0.00 0.00 0.00 40 1017.7
20260904161005 31 234 8.0 19.3 0.00 0.00 0.00 41 1017.6
20260904160505 31 242 9.7 19.3 0.00 0.00 0.00 41 1017.8
20260904160005 31 255 8.0 12.9 0.00 0.00 0.00 41 1017.8
20260904155505 31 249 8.0 16.1 0.00 0.00 0.00 41 1017.7
20260904154005 30 256 11.3 20.9 0.00 0.00 0.00 41 1018.0
20260904153505 30 251 12.9 22.5 0.00 0.00 0.00 41 1018.0
20260904153005 30 240 12.9 22.5 0.00 0.00 0.00 41 1017.9
20260904152505 30 247 11.3 20.9 0.00 0.00 0.00 40 1017.9
20260904152005 30 264 11.3 20.9 0.00 0.00 0.00 41 1017.9
20260904151505 30 292 12.9 17.7 0.00 0.00 0.00 41 1017.9
20260904151005 30 270 12.9 24.1 0.00 0.00 0.00 41 1017.8
20260904150505 30 262 12.9 20.9 0.00 0.00 0.00 41 1017.7
20260904150005 30 263 14.5 20.9 0.00 0.00 0.00 41 1017.7
20260904145506 30 251 12.9 20.9 0.00 0.00 0.00 41 1017.6
20260904145006 30 240 12.9 20.9 0.00 0.00 0.00 41 1017.7
20260904144005 30 235 11.3 24.1 0.00 0.00 0.00 41 1017.8
20260904143506 30 239 11.3 22.5 0.00 0.00 0.00 42 1017.6
20260904143005 30 238 11.3 22.5 0.00 0.00 0.00 41 1017.8
20260904142005 30 246 11.3 19.3 0.00 0.00 0.00 42 1018.0
20260904141505 30 249 11.3 25.7 0.00 0.00 0.00 42 1018.1
20260904141005 30 243 11.3 25.7 0.00 0.00 0.00 42 1018.1
20260904140505 30 223 9.7 20.9 0.00 0.00 0.00 42 1018.1
20260904140005 30 230 9.7 20.9 0.00 0.00 0.00 42 1018.2
20260904135505 30 230 8.0 16.1 0.00 0.00 0.00 42 1018.4
20260904135005 30 229 9.7 20.9 0.00 0.00 0.00 42 1018.5
20260904134505 30 222 11.3 20.9 0.00 0.00 0.00 43 1018.5
20260904134005 30 223 12.9 24.1 0.00 0.00 0.00 42 1018.5
20260904133505 30 230 14.5 24.1 0.00 0.00 0.00 42 1018.5
20260904133005 30 231 12.9 24.1 0.00 0.00 0.00 43 1018.7
20260904132506 29 234 12.9 20.9 0.00 0.00 0.00 43 1018.5
20260904132005 29 232 14.5 24.1 0.00 0.00 0.00 43 1018.9
20260904131005 29 238 12.9 27.4 0.00 0.00 0.00 44 1019.0
20260904130505 29 243 11.3 20.9 0.00 0.00 0.00 44 1018.9
20260904130005 29 246 12.9 22.5 0.00 0.00 0.00 44 1019.0
20260904125505 29 240 12.9 22.5 0.00 0.00 0.00 44 1019.3
20260904125006 29 238 12.9 24.1 0.00 0.00 0.00 44 1019.2
20260904124505 29 241 11.3 24.1 0.00 0.00 0.00 44 1019.2
20260904123506 29 237 14.5 25.7 0.00 0.00 0.00 44 1019.5
20260904123006 29 232 14.5 24.1 0.00 0.00 0.00 45 1019.2
20260904122506 29 236 11.3 24.1 0.00 0.00 0.00 44 1019.3
20260904122006 29 247 9.7 20.9 0.00 0.00 0.00 44 1019.5
20260904121505 29 247 11.3 22.5 0.00 0.00 0.00 45 1019.5
20260904121005 28 249 12.9 22.5 0.00 0.00 0.00 45 1019.5
20260904120505 28 247 11.3 20.9 0.00 0.00 0.00 44 1019.4
20260904120005 28 250 12.9 22.5 0.00 0.00 0.00 44 1019.6
20260904115505 28 251 11.3 22.5 0.00 0.00 0.00 45 1019.5
20260904115005 28 246 12.9 22.5 0.00 0.00 0.00 45 1019.6
20260904114505 28 246 12.9 20.9 0.00 0.00 0.00 44 1019.4
20260904114005 28 239 11.3 19.3 0.00 0.00 0.00 44 1019.5
20260904113505 28 240 11.3 20.9 0.00 0.00 0.00 44 1019.6
20260904113005 28 237 11.3 20.9 0.00 0.00 0.00 43 1019.8
20260904112506 28 233 11.3 22.5 0.00 0.00 0.00 44 1019.9
20260904112005 28 231 11.3 22.5 0.00 0.00 0.00 43 1019.8
20260904111505 28 227 9.7 22.5 0.00 0.00 0.00 42 1020.0
20260904111005 28 232 9.7 22.5 0.00 0.00 0.00 43 1020.1
20260904110505 28 243 9.7 22.5 0.00 0.00 0.00 42 1020.0
20260904110006 28 250 8.0 16.1 0.00 0.00 0.00 42 1020.1
20260904105005 27 247 9.7 17.7 0.00 0.00 0.00 43 1020.2
20260904104505 27 248 9.7 17.7 0.00 0.00 0.00 43 1020.3
20260904104005 27 245 11.3 24.1 0.00 0.00 0.00 46 1020.5
20260904103005 27 226 11.3 22.5 0.00 0.00 0.00 46 1020.5
20260904102505 27 223 9.7 22.5 0.00 0.00 0.00 46 1020.6
20260904102005 27 228 9.7 22.5 0.00 0.00 0.00 46 1020.4
20260904101506 27 233 9.7 17.7 0.00 0.00 0.00 46 1020.6
20260904101005 27 239 8.0 17.7 0.00 0.00 0.00 46 1020.8
20260904100505 26 242 6.4 14.5 0.00 0.00 0.00 46 1020.9
20260904100006 26 249 8.0 12.9 0.00 0.00 0.00 45 1020.8
20260904095506 26 251 9.7 25.7 0.00 0.00 0.00 45 1021.0
20260904095005 26 255 11.3 25.7 0.00 0.00 0.00 45 1021.3
20260904094505 26 245 8.0 20.9 0.00 0.00 0.00 45 1021.0
20260904094005 26 241 6.4 16.1 0.00 0.00 0.00 44 1021.1
20260904093505 26 245 11.3 27.4 0.00 0.00 0.00 44 1021.2
20260904093005 26 242 12.9 27.4 0.00 0.00 0.00 45 1021.4
20260904092505 26 235 9.7 20.9 0.00 0.00 0.00 44 1021.1
20260904092005 26 223 8.0 14.5 0.00 0.00 0.00 45 1021.1
20260904091005 26 217 8.0 19.3 0.00 0.00 0.00 45 1021.2
20260904090505 26 213 9.7 19.3 0.00 0.00 0.00 45 1021.0
20260904085505 26 234 6.4 12.9 0.00 0.00 0.00 45 1020.9
20260904085005 26 237 6.4 12.9 0.00 0.00 0.00 45 1021.1
20260904084505 26 240 4.8 12.9 0.00 0.00 0.00 45 1020.9
20260904083505 25 241 8.0 14.5 0.00 0.00 0.00 45 1020.9
20260904083005 25 219 8.0 14.5 0.00 0.00 0.00 45 1020.9
20260904082505 25 196 6.4 16.1 0.00 0.00 0.00 45 1020.9
20260904082005 25 191 6.4 16.1 0.00 0.00 0.00 45 1021.0
20260904081506 25 199 4.8 14.5 0.00 0.00 0.00 46 1020.9
20260904081005 25 201 6.4 14.5 0.00 0.00 0.00 46 1020.8
20260904080506 25 194 6.4 12.9 0.00 0.00 0.00 46 1020.7
20260904075505 24 210 4.8 12.9 0.00 0.00 0.00 47 1020.8
20260904075005 24 195 6.4 14.5 0.00 0.00 0.00 48 1020.9
20260904074505 23 173 4.8 14.5 0.00 0.00 0.00 50 1020.7
20260904074005 22 133 1.6 3.2 0.00 0.00 0.00 57 1020.8
20260904073505 22 101 1.6 4.8 0.00 0.00 0.00 57 1020.9
20260904073005 22 82 1.6 4.8 0.00 0.00 0.00 60 1020.9
20260904072505 22 63 1.6 4.8 0.00 0.00 0.00 64 1020.8
20260904071505 21 41 0.0 3.2 0.00 0.00 0.00 66 1020.8
20260904071005 21 42 1.6 3.2 0.00 0.00 0.00 66 1020.7
20260904070005 20 57 1.6 4.8 0.00 0.00 0.00 68 1021.0
20260904065505 20 65 3.2 4.8 0.00 0.00 0.00 68 1021.0
20260904064505 19 66 3.2 4.8 0.00 0.00 0.00 68 1021.2
20260904064005 18 62 3.2 4.8 0.00 0.00 0.00 69 1021.3
20260904062505 18 53 3.2 6.4 0.00 0.00 0.00 71 1021.3
20260904062005 18 49 4.8 8.0 0.00 0.00 0.00 71 1021.3
20260904061506 17 49 3.2 8.0 0.00 0.00 0.00 72 1021.3
20260904061005 17 57 3.2 6.4 0.00 0.00 0.00 72 1021.3
20260904060005 17 65 4.8 6.4 0.00 0.00 0.00 75 1021.4
20260904055505 16 59 3.2 6.4 0.00 0.00 0.00 76 1021.4
20260904055005 16 79 1.6 6.4 0.00 0.00 0.00 76 1021.4
20260904054505 16 80 1.6 4.8 0.00 0.00 0.00 76 1021.5
20260904054005 16 84 1.6 3.2 0.00 0.00 0.00 75 1021.5
20260904053505 16 85 1.6 3.2 0.00 0.00 0.00 75 1021.7
20260904053005 16 90 3.2 4.8 0.00 0.00 0.00 75 1021.5
20260904052505 16 89 3.2 4.8 0.00 0.00 0.00 75 1021.4
20260904052005 16 85 3.2 6.4 0.00 0.00 0.00 75 1021.4
20260904051505 16 84 3.2 6.4 0.00 0.00 0.00 75 1021.4
20260904051005 16 83 4.8 6.4 0.00 0.00 0.00 75 1021.4
20260904050505 16 82 3.2 6.4 0.00 0.00 0.00 75 1021.4
20260904050005 16 82 3.2 6.4 0.00 0.00 0.00 75 1021.6
20260904045505 16 82 3.2 6.4 0.00 0.00 0.00 75 1021.7
20260904045005 16 89 3.2 6.4 0.00 0.00 0.00 75 1021.6
20260904044504 16 88 3.2 6.4 0.00 0.00 0.00 75 1021.6
20260904044005 16 84 1.6 3.2 0.00 0.00 0.00 75 1021.7
20260904043505 16 82 1.6 3.2 0.00 0.00 0.00 75 1021.5
20260904042505 16 88 1.6 3.2 0.00 0.00 0.00 75 1021.8
20260904042005 16 85 1.6 3.2 0.00 0.00 0.00 75 1021.8
20260904041505 16 83 1.6 3.2 0.00 0.00 0.00 74 1021.6
20260904040505 16 63 1.6 4.8 0.00 0.00 0.00 74 1022.0
20260904040005 16 56 1.6 4.8 0.00 0.00 0.00 74 1022.1
20260904035504 16 56 3.2 4.8 0.00 0.00 0.00 74 1022.2
20260904035005 16 55 3.2 6.4 0.00 0.00 0.00 74 1022.3
20260904034505 16 56 4.8 6.4 0.00 0.00 0.00 74 1022.2
20260904034005 16 57 3.2 4.8 0.00 0.00 0.00 74 1022.2
20260904033505 16 72 3.2 4.8 0.00 0.00 0.00 74 1022.3
20260904033005 16 78 3.2 4.8 0.00 0.00 0.00 74 1022.5
20260904032006 16 80 3.2 4.8 0.00 0.00 0.00 73 1022.5
20260904031505 17 81 3.2 6.4 0.00 0.00 0.00 73 1022.5
20260904031005 17 80 3.2 6.4 0.00 0.00 0.00 73 1022.6
20260904030005 17 79 3.2 8.0 0.00 0.00 0.00 73 1022.3
20260904025506 17 82 3.2 6.4 0.00 0.00 0.00 72 1022.5
20260904025005 17 80 3.2 6.4 0.00 0.00 0.00 72 1022.6
20260904024505 17 81 3.2 4.8 0.00 0.00 0.00 72 1022.7
20260904024004 17 82 4.8 9.7 0.00 0.00 0.00 72 1022.6
20260904023505 17 88 4.8 9.7 0.00 0.00 0.00 72 1022.8
20260904023006 17 82 3.2 8.0 0.00 0.00 0.00 72 1022.8
20260904022505 17 77 3.2 4.8 0.00 0.00 0.00 72 1022.8
20260904022005 17 72 3.2 4.8 0.00 0.00 0.00 68 1022.8
20260904021505 17 69 3.2 4.8 0.00 0.00 0.00 67 1022.8
20260904021004 17 73 3.2 9.7 0.00 0.00 0.00 67 1022.8
20260904020505 17 74 4.8 9.7 0.00 0.00 0.00 66 1022.8
20260904020005 18 72 4.8 9.7 0.00 0.00 0.00 66 1022.8
20260904015505 17 67 4.8 8.0 0.00 0.00 0.00 66 1022.8
20260904015005 17 74 6.4 9.7 0.00 0.00 0.00 66 1022.8
20260904014505 17 73 3.2 9.7 0.00 0.00 0.00 66 1022.9
20260904014005 17 67 3.2 9.7 0.00 0.00 0.00 66 1022.9
20260904013505 17 65 6.4 11.3 0.00 0.00 0.00 66 1023.2
20260904013004 17 62 6.4 11.3 0.00 0.00 0.00 66 1023.0
20260904012505 17 62 6.4 8.0 0.00 0.00 0.00 67 1023.2
20260904011506 17 57 4.8 8.0 0.00 0.00 0.00 67 1023.4
20260904011005 17 53 4.8 8.0 0.00 0.00 0.00 67 1023.4
20260904010505 17 48 4.8 8.0 0.00 0.00 0.00 67 1023.4
20260904005505 17 45 6.4 11.3 0.00 0.00 0.00 66 1023.5
20260904005005 17 43 6.4 12.9 0.00 0.00 0.00 67 1023.5
20260904004006 17 43 4.8 11.3 0.00 0.00 0.00 67 1023.6
20260904003505 17 46 4.8 11.3 0.00 0.00 0.00 68 1023.8
20260904001505 18 75 4.8 8.0 0.00 0.00 0.00 67 1024.0
20260904001005 18 81 3.2 8.0 0.00 0.00 0.00 67 1023.8
20260904000504 18 89 3.2 6.4 0.00 0.00 0.00 67 1023.9
20260904000005 18 84 3.2 6.4 0.00 0.00 0.00 66 1024.0
20260903235505 18 85 3.2 6.4 0.00 0.00 0.00 66 1023.8
20260903235006 18 83 4.8 12.9 0.00 0.00 0.00 66 1023.8
20260903234505 18 81 4.8 12.9 0.00 0.00 0.00 65 1023.7
20260903234005 18 76 4.8 8.0 0.00 0.00 0.00 66 1023.8
20260903233505 18 69 3.2 8.0 0.00 0.00 0.00 66 1024.0
20260903233004 18 67 4.8 9.7 0.00 0.00 0.00 66 1023.8
20260903232505 18 63 4.8 9.7 0.00 0.00 0.00 66 1023.8
20260903232005 18 63 4.8 8.0 0.00 0.00 0.00 65 1024.1
20260903231505 18 59 3.2 8.0 0.00 0.00 0.00 65 1024.1
20260903230004 18 67 4.8 6.4 0.00 0.00 0.00 66 1024.2
20260903225505 18 69 4.8 9.7 0.00 0.00 0.00 65 1024.2
20260903225006 18 66 4.8 11.3 0.00 0.00 0.00 65 1024.2
20260903224505 18 65 3.2 11.3 0.00 0.00 0.00 64 1024.3
20260903224004 18 65 6.4 11.3 0.00 0.00 0.00 65 1024.3
20260903223505 18 64 6.4 11.3 0.00 0.00 0.00 64 1024.1
20260903223005 19 60 4.8 8.0 0.00 0.00 0.00 64 1024.4
20260903222505 19 63 4.8 11.3 0.00 0.00 0.00 64 1024.4
20260903221505 19 64 6.4 11.3 0.00 0.00 0.00 64 1024.3
20260903221004 19 59 4.8 9.7 0.00 0.00 0.00 64 1024.3
20260903220505 19 60 3.2 8.0 0.00 0.00 0.00 64 1024.5
20260903220005 19 55 4.8 8.0 0.00 0.00 0.00 64 1024.5
20260903215006 19 47 4.8 8.0 0.00 0.00 0.00 64 1024.3
20260903214505 19 43 4.8 8.0 0.00 0.00 0.00 64 1024.6
20260903214005 19 44 6.4 9.7 0.00 0.00 0.00 64 1024.3
20260903213505 19 42 4.8 9.7 0.00 0.00 0.00 64 1024.5
20260903213005 19 43 4.8 11.3 0.00 0.00 0.00 63 1024.7
20260903212504 19 40 6.4 11.3 0.00 0.00 0.00 64 1024.6
20260903212005 20 42 6.4 11.3 0.00 0.00 0.00 63 1024.6
20260903211504 20 47 6.4 11.3 0.00 0.00 0.00 63 1024.4
20260903211005 20 47 6.4 11.3 0.00 0.00 0.00 63 1024.7